{"data":{"norad_id":59265,"intl_designator":"2024-050M","name":"STARLINK-31646","alt_names":[],"object_type":"PAYLOAD","status":"ACTIVE","operator":null,"country":"US","launch_date":"2024-03-19","launch_site_code":"AFWTR","launch_vehicle":null,"mission":null,"orbit_class":"UNKNOWN","rcs_meters":null,"size_class":null,"mass_kg":null,"dimensions":null,"purposes":["comms"],"wikipedia_slug":null,"has_3d_model":false,"image_url":null,"decayed_at":null,"tle_current":{"epoch":"2026-05-24T12:07:32.212416Z","epoch_age_seconds":121007,"freshness":"FRESH","line1":"1 59265U 24050M   26144.50523394 -.00000113  00000+0  83110-5 0  9999","line2":"2 59265  53.1599 189.0229 0001101  90.1030 270.0097 15.30190721122153","mean_motion":15.30190721,"eccentricity":0.0001101,"inclination_deg":53.1599,"raan_deg":189.0229,"arg_perigee_deg":90.103,"mean_anomaly_deg":270.0097,"bstar":8.311e-6,"rev_number":12215,"period_min":94.105916356553,"perigee_km":474.48821786755,"apogee_km":475.997332094,"semimajor_km":6853.3797749808,"source":"CELESTRAK","updated_at":"2026-05-25T13:38:18.875840Z"}}}